Regional Weather Roundup
Issued by NWS

Home | Current Version | Previous Version | Graphics & Text | Print | Product List | Glossary On
Versions: 1 2 3 4 5 6 7 8 9 10 11 12 13 14 15 16 17 18 19 20 21 22 23 24 25 26 27 28 29 30 31 32 33 34 35 36 37 38 39 40 41 42 43 44 45 46 47 48 49 50
000
ASUS45 KPSR 230610
RWRAZ

ARIZONA REGIONAL HOURLY WEATHER ROUNDUP
NATIONAL WEATHER SERVICE PHOENIX AZ
1100 PM MST MON SEP 22 2014

NOTE: FAIR INDICATES FEW OR NO CLOUDS BELOW 12,000 FEET WITH NO
SIGNIFICANT WEATHER AND/OR OBSTRUCTIONS TO VISIBILITY.

AZZ001>003-036-230700-
NORTHWEST ARIZONA

CITY           SKY/WX    TMP DP  RH WIND       PRES   REMARKS
BULLHEAD CITY  CLEAR     84  39  20 CALM      29.90R
KINGMAN        CLEAR     68  35  29 S8        30.09R
6HR MIN TEMP:  65; 6HR MAX TEMP:  88;

$$

AZZ004>008-015-016-018-230700-
NORTH CENTRAL ARIZONA

CITY           SKY/WX    TMP DP  RH WIND       PRES   REMARKS
GRAND CANYON   CLEAR     47  40  76 CALM      30.31R
6HR MIN TEMP:  47; 6HR MAX TEMP:  76;

PRESCOTT       CLEAR     61  40  45 S7        30.21R
6HR MIN TEMP:  59; 6HR MAX TEMP:  81;

FLAGSTAFF      CLEAR     50  45  83 CALM      30.35R
6HR MIN TEMP:  50; 6HR MAX TEMP:  72;

PAYSON         CLEAR     66  55  68 NE3       30.23R
PAGE           CLEAR     71  43  36 CALM      30.12R
6HR MIN TEMP:  71; 6HR MAX TEMP:  86;

$$

AZZ009>014-017-230700-
NORTHEAST ARIZONA

CITY           SKY/WX    TMP DP  RH WIND       PRES   REMARKS
WINSLOW        CLEAR     65  52  62 SW8       30.19R
6HR MIN TEMP:  65; 6HR MAX TEMP:  87;

SAINT JOHNS    PTCLDY    65  59  81 S7        30.23S
6HR MIN TEMP:  65; 6HR MAX TEMP:  74;

SHOW LOW       CLEAR     61  54  77 S7        30.32S
$$

AZZ023-230700-
GREATER PHOENIX AREA

CITY           SKY/WX    TMP DP  RH WIND       PRES   REMARKS
PHOENIX        CLEAR     91  47  21 CALM      29.90R
6HR MIN TEMP:  90; 6HR MAX TEMP:  99;

BUCKEYE          N/A     77  54  44 N7        29.91S
LUKE AFB       CLEAR     81  52  36 N2        29.90R
6HR MIN TEMP:  81; 6HR MAX TEMP:  98;

DEER VALLEY    CLEAR     82  51  34 CALM      29.93R
6HR MIN TEMP:  81; 6HR MAX TEMP:  97;

SCOTTSDALE     CLEAR     86  52  30 N3        29.94R
6HR MIN TEMP:  84; 6HR MAX TEMP:  97;

MESA-GATEWAY   CLEAR     86  55  35 E6        29.95R
$$

AZZ027-028-230700-
SOUTHWEST MARICOPA COUNTY AND PINAL COUNTY

CITY           SKY/WX    TMP DP  RH WIND       PRES   REMARKS
CASA GRANDE    CLEAR     81  50  34 CALM      29.94S
6HR MIN TEMP:  81; 6HR MAX TEMP:  97;

$$

AZZ503-504-507>509-230700-
SOUTHEAST ARIZONA

CITY           SKY/WX    TMP DP  RH WIND       PRES   REMARKS
TUCSON         CLEAR     82  59  45 SE6       30.03S
6HR MIN TEMP:  82; 6HR MAX TEMP:  94;

DAVIS-MONTHAN  CLEAR     79  60  53 SW3       30.02R
6HR MIN TEMP:  79; 6HR MAX TEMP:  92;

NOGALES        PTCLDY    73  67  81 CALM      30.12R
6HR MIN TEMP:  72; 6HR MAX TEMP:  84; 6HR PCP:  0.01;

SIERRA VISTA   PTCLDY    72  63  73 VRB5      30.18S
DOUGLAS        MOCLDY    69  64  84 CALM      30.16S
6HR MIN TEMP:  66; 6HR MAX TEMP:  84; 6HR PCP:  0.63;

SAFFORD        CLEAR     77  64  64 E9        30.08R
6HR MIN TEMP:  77; 6HR MAX TEMP:  86;

$$

AZZ020-021-025-026-031-230700-
SOUTHWEST ARIZONA

CITY           SKY/WX    TMP DP  RH WIND       PRES   REMARKS
YUMA           CLEAR     86  68  54 S6        29.87R
6HR MIN TEMP:  86; 6HR MAX TEMP: 102;

$$

CAZ031-033-041-043-047-048-061-230700-
SOUTHERN CALIFORNIA

CITY           SKY/WX    TMP DP  RH WIND       PRES   REMARKS
DOWNTOWN L.A.  CLEAR     67  62  84 CALM      29.94R
6HR MIN TEMP:  66; 6HR MAX TEMP:  77;

L.A. AIRPORT   CLEAR     65  63  93 W6        29.95R
SAN DIEGO      PTCLDY    70  64  81 CALM      29.97R
6HR MIN TEMP:  70; 6HR MAX TEMP:  76;

BURBANK        CLEAR     69  61  75 E3        29.95R
6HR MIN TEMP:  68; 6HR MAX TEMP:  84;

ONTARIO        CLEAR     72  59  63 W3        29.96R
6HR MIN TEMP:  72; 6HR MAX TEMP:  88;

RIVERSIDE      CLEAR     73  60  63 CALM      29.96R
6HR MIN TEMP:  73; 6HR MAX TEMP:  87;

PALM SPRINGS   CLEAR     87  41  19 N3        29.90R
6HR MIN TEMP:  85; 6HR MAX TEMP: 101;

EL CENTRO NAS  PTCLDY    84  58  40 CALM      29.83R
6HR MIN TEMP:  84; 6HR MAX TEMP: 102;

IMPERIAL       CLEAR     84  62  47 CALM      29.83R
6HR MIN TEMP:  84; 6HR MAX TEMP: 102;

BLYTHE         CLEAR     86  44  23 S8        29.87R
6HR MIN TEMP:  86; 6HR MAX TEMP: 101;

NEEDLES        CLEAR     85  35  16 SW9       29.90R
6HR MIN TEMP:  85; 6HR MAX TEMP: 101;

$$

NVZ020-UTZ003-230700-
SOUTHERN NEVADA-UTAH

CITY           SKY/WX    TMP DP  RH WIND       PRES   REMARKS
LAS VEGAS      CLEAR     82  39  21 SW9       29.94R
6HR MIN TEMP:  82; 6HR MAX TEMP:  94;

SALT LAKE CITY MOCLDY    67  52  58 S6        30.10S
6HR MIN TEMP:  66; 6HR MAX TEMP:  76;

$$

NMZ009-TXZ055-230700-
NEW MEXICO-WEST TEXAS

CITY           SKY/WX    TMP DP  RH WIND       PRES   REMARKS
ALBUQUERQUE    MOCLDY    66  61  84 S7        30.28R
6HR MIN TEMP:  66; 6HR MAX TEMP:  75; 6HR PCP:  0.01;

EL PASO        MOCLDY    69  64  84 CALM      30.20F
6HR MIN TEMP:  69; 6HR MAX TEMP:  72; 6HR PCP: TRACE;

$$


........................KEY........................
SKY/WX - SKY CONDITION/WEATHER
TMP    - TEMPERATURE IN FAHRENHEIT
DP     - DEW POINT IN FAHRENHEIT
RH     - RELATIVE HUMIDITY IN PERCENT
WIND   - DIRECTION AND SPEED IN MILES PER HOUR (MPH)
VRB    - VARIABLE WIND DIRECTION
PRES   - MEAN SEA LEVEL PRESSURE IN INCHES OF MERCURY
         F - FALLING PRESSURE   R - RISING PRESSURE
         S - STEADY PRESSURE
VSB    - VISIBILITY IN MILES
HX     - HEAT INDEX IN FAHRENHEIT
WCI    - WIND CHILL INDEX IN FAHRENHEIT
TC     - TEMPERATURE IN CELSIUS WHICH IS ALSO KNOWN AS
         TEMPERATURE IN CENTIGRADE
AFB    - AIR FORCE BASE
         LUKE AFB IS LUKE AIR FORCE BASE
         DAVIS-MONTHAN IS DAVIS-MONTHAN AIR FORCE BASE
NAS    - NAVAL AIR STATION
         EL CENTRO NAS IS EL CENTRO NAVAL AIR STATION
N/A    - NOT AVAILABLE



USA.gov is the U.S. government's official web portal to all federal, state and local government web resources and services.